Location: Unspecified
(49.2170°N, 0.0000°E)
Time: 11:40:53
(UTC+00:00)

Vanguard 2 Rocket - Visible Passes

Search period start: 25 June 2019 00:00
Search period end: 05 July 2019 00:00
Orbit: 555 x 3326 km, 32.9° (Epoch: 25 June)

Date Brightness Start Highest point End Pass type
(mag) Time Alt. Az. Time Alt. Az. Time Alt. Az.
25 Jun 9.4 01:08:57 10° WSW 01:19:27 32° SSW 01:34:23 10° SE visible
25 Jun 8.8 21:57:59 10° SW 22:05:12 31° SSE 22:16:32 10° ESE visible
26 Jun 9.2 00:09:36 10° WSW 00:18:58 34° S 00:33:08 10° SE visible
26 Jun 9.9 02:23:47 10° WSW 02:33:37 22° SSW 02:46:10 10° SSE visible
26 Jun 8.7 20:59:48 10° SSW 21:05:42 26° SSE 21:14:34 10° ESE visible
26 Jun 8.9 23:10:35 10° WSW 23:18:46 33° S 23:31:34 10° SE visible
27 Jun 9.6 01:23:36 10° WSW 01:33:05 26° SSW 01:46:06 10° SSE visible
27 Jun 8.7 22:11:54 10° SW 22:18:54 31° S 22:29:52 10° ESE visible
28 Jun 9.3 00:24:01 10° WSW 00:32:42 28° SSW 00:45:22 10° SE visible
28 Jun 10.0 02:40:01 10° WSW 02:47:08 15° SSW 02:55:37 10° S visible
28 Jun 8.6 21:13:32 10° SW 21:19:20 27° SSE 21:28:11 10° ESE visible
28 Jun 9.0 23:24:51 10° WSW 23:32:33 29° S 23:44:14 10° SE visible
29 Jun 9.7 01:38:56 10° WSW 01:46:45 19° SSW 01:56:48 10° S visible
29 Jun 8.8 22:26:02 10° SW 22:32:41 28° S 22:42:48 10° SE visible
30 Jun 9.4 00:38:54 10° WSW 00:46:29 21° SSW 00:56:53 10° SSE visible
30 Jun 8.6 21:27:31 10° SW 21:33:06 26° S 21:41:32 10° SE visible
30 Jun 9.2 23:39:28 10° WSW 23:46:24 23° SSW 23:48:05 22° S visible
01 Jul10.102:08:52S02:08:52S01:53:41WSWvisible
01 Jul 8.9 22:40:27 10° WSW 22:46:34 24° S 22:50:02 20° SSE visible
02 Jul 9.7 00:54:49 10° SW 00:55:43 11° SW 00:55:43 11° SW visible
02 Jul 8.7 21:41:46 10° SW 21:46:58 23° S 21:52:31 14° SE visible
02 Jul 9.4 23:54:44 10° SW 23:58:13 16° SSW 23:58:13 16° SSW visible
03 Jul 8.5 20:43:20 10° SW 20:47:37 20° S 20:53:36 10° SE visible
03 Jul 9.1 22:55:20 10° SW 23:00:28 18° SSW 23:01:00 18° S visible
04 Jul 8.9 21:56:23 10° SW 22:00:53 18° S 22:03:57 15° SSE visible
